Location: Gorlice
(49.6633°N, 21.1693°E)
Time: 10:53:05
(UTC+01:00)

ISS - Pass Details

Date: 25 January 2019
Orbit: 403 x 411 km, 51.6° (Epoch: 18 February)

Event Time Altitude Azimuth Distance (km) Brightness Sun altitude
Rises 18:28:45 0° 240° (WSW) 2,329 1.1 -20.9°
Reaches altitude 10° 18:30:50 10° 236° (WSW) 1,472 -0.1 -21.2°
Enters shadow 18:33:25 48° 209° (SSW) 549 -3.1 -21.6°
